Home   Weather   Syktyvkar   Past weeks
Flag for Russia

Past Weather in Syktyvkar, Russia — Yesterday and Last 2 Weeks

Now
30 °F

Sunny.


Feels Like: 27 °F
Forecast: 36 / 23 °F
Wind: 3 mph from South

Location: Syktyvkar Airport

Current Time: Mar 22, 2019 at 7:27:37 am

Latest Report: Mar 22, 2019 at 6:30 am


Visibility: 10 mi

Pressure: 29.80 "Hg

Humidity: 93%

Dew Point: 28 °F

Location of SyktyvkarLocation

Past Weather in Syktyvkar — Graph

°F

Syktyvkar Temperature Yesterday

Maximum temperature yesterday: 39 °F (at 1:30 pm)
Minimum temperature yesterday: 32 °F (at 2:30 am)
Average temperature yesterday: 34 °F

High & Low Weather Summary for the Past Weeks

 TemperatureHumidityPressure
High39 °F (Mar 19, 4:00 pm)100% (Mar 9, 6:00 am)30.24 "Hg (Mar 9, 6:00 am)
Low3 °F (Mar 7, 6:00 am)50% (Mar 15, 10:30 am)29.24 "Hg (Mar 12, 8:00 am)
Average28 °F85%29.81 "Hg
* Reported Mar 7 6:00 am — Mar 22 6:00 am, Syktyvkar. Weather by CustomWeather, © 2019

Note: Actual official high and low records may vary slightly from our data, if they occured in-between our weather recording intervals... More about our weather records

Advertising

Syktyvkar Weather History for the Previous 24 Hours

Scroll right to see more
 ConditionsComfort  
Time TempWeatherWind HumidityBarometerVisibility
6:00 am
Fri, Mar 22
30 °FSunny.6 mph93%29.83 "Hg10 mi
5:30 am30 °FClear.3 mph93%29.83 "Hg10 mi
5:00 am30 °FClear.3 mph100%29.83 "Hg10 mi
4:30 am30 °FClear.3 mph100%29.83 "Hg10 mi
3:30 am30 °FClear.3 mph100%29.83 "Hg10 mi
3:00 am30 °FClear.3 mph100%29.86 "Hg10 mi
2:30 am30 °FClear.3 mph100%29.86 "Hg4 mi
2:00 am32 °FClear.3 mph93%29.86 "Hg10 mi
1:30 am30 °FClear.3 mph100%29.86 "Hg10 mi
1:00 am32 °FClear.3 mph93%29.86 "Hg10 mi
12:30 am32 °FClear.3 mph93%29.89 "Hg10 mi
12:00 am32 °FClear.3 mph93%29.89 "Hg10 mi
11:30 pm
Thu, Mar 21
32 °FPassing clouds.3 mph93%29.89 "HgN/A
11:00 pm32 °FPassing clouds.3 mph93%29.89 "HgN/A
10:30 pm32 °FPassing clouds.3 mph100%29.89 "HgN/A
10:00 pm32 °FPassing clouds.3 mph100%29.92 "HgN/A
9:30 pm32 °FPassing clouds.3 mph100%29.92 "HgN/A
9:00 pm32 °FPassing clouds.3 mph100%29.92 "HgN/A
8:30 pm32 °FPassing clouds.3 mph100%29.92 "Hg6 mi
8:00 pm32 °FPassing clouds.3 mph100%29.92 "Hg6 mi
7:30 pm32 °FPassing clouds.3 mph100%29.92 "HgN/A
7:00 pm32 °FPassing clouds.3 mph100%29.92 "HgN/A
6:30 pm32 °FPassing clouds.3 mph100%29.92 "HgN/A
6:00 pm32 °FSnow flurries. Passing clouds.3 mph100%29.92 "HgN/A
5:30 pm32 °FScattered clouds.3 mph100%29.92 "HgN/A
5:00 pm36 °FPassing clouds.1 mph87%29.92 "HgN/A
4:30 pm34 °FSnow flurries. Broken clouds.1 mph93%29.92 "Hg4 mi
4:00 pm36 °FScattered clouds.3 mph87%29.92 "HgN/A
3:30 pm36 °FScattered clouds.6 mph87%29.92 "HgN/A
3:00 pm36 °FSnow flurries. Scattered clouds.6 mph87%29.92 "Hg4 mi
2:30 pm36 °FPartly sunny.6 mph81%29.92 "HgN/A
2:00 pm36 °FPartly sunny.8 mph87%29.92 "HgN/A
1:30 pm39 °FScattered clouds.6 mph70%29.92 "HgN/A
1:00 pm36 °FScattered clouds.6 mph87%29.92 "HgN/A
12:30 pm37 °FScattered clouds.8 mph75%29.92 "HgN/A
12:00 pm37 °FScattered clouds.6 mph75%29.92 "HgN/A
11:30 am37 °FScattered clouds.3 mph81%29.92 "HgN/A
11:00 am37 °FScattered clouds.3 mph75%29.92 "HgN/A
10:30 am36 °FScattered clouds.6 mph87%29.89 "HgN/A
10:00 am36 °FScattered clouds.3 mph87%29.89 "HgN/A
9:30 am36 °FScattered clouds.3 mph87%29.89 "HgN/A
9:00 am34 °FSnow flurries. Broken clouds.6 mph87%29.89 "Hg2 mi
8:30 am34 °FSnow flurries. Broken clouds.3 mph100%29.89 "Hg6 mi
8:00 am34 °FSnow flurries. Broken clouds.1 mph100%29.89 "Hg5 mi
7:30 am34 °FSnow flurries. Broken clouds.3 mph100%29.89 "Hg5 mi
7:00 am32 °FSnow flurries. Broken clouds.3 mph100%29.89 "Hg4 mi
Weather by CustomWeather, © 2019

See weather overview